QPF
0.00 0.00 0.00 0.00 0.00 0.00 0.00 0.00 0.00 0.00 0.00 0.00 0.00 0.00 0.00 0.00 0.00 0.00 0.00 0.00 0.00 0.00 0.00 0.00 0.01 0.01 0.01 0.01 0.01 0.01 0.01 0.01 0.00 0.00 0.00 0.00 0.00 0.00 0.00 0.01 0.01 0.02 0.02 0.03 0.04 0.04 0.02 0.01 0.00
0.00 0.00 0.00 0.00 0.00 0.00 0.00 0.00 0.00 0.00 0.00 0.00 0.00 0.00 0.00 0.00 0.00 0.00 0.00 0.00 0.00 0.00 0.00 0.00 0.00 0.01 0.01 0.01 0.01 0.01 0.01 0.00 0.00 0.00 0.00 0.00 0.00 0.00 0.01 0.01 0.01 0.01 0.02 0.03 0.03 0.02 0.01 0.00 0.00
0.00 0.00 0.00 0.00 0.00 0.00 0.00 0.00 0.00 0.00 0.00 0.00 0.00 0.00 0.00 0.00 0.00 0.00 0.00 0.00 0.00 0.00 0.00 0.00 0.01 0.01 0.01 0.01 0.01 0.01 0.00 0.00 0.00 0.00 0.00 0.00 0.00 0.00 0.01 0.01 0.01 0.02 0.02 0.01 0.02 0.01 0.00 0.00 0.00
0.00 0.00 0.00 0.00 0.00 0.00 0.00 0.00 0.00 0.00 0.00 0.00 0.00 0.00 0.00 0.00 0.00 0.00 0.00 0.00 0.00 0.00 0.00 0.00 0.01 0.01 0.01 0.01 0.01 0.01 0.01 0.00 0.00 0.00 0.00 0.00 0.00 0.01 0.01 0.01 0.01 0.01 0.01 0.01 0.01 0.00 0.00 0.00 0.00
0.00 0.00 0.00 0.00 0.00 0.00 0.00 0.00 0.00 0.00 0.00 0.00 0.00 0.00 0.00 0.00 0.00 0.00 0.00 0.00 0.00 0.00 0.00 0.00 0.01 0.01 0.01 0.01 0.01 0.00 0.01 0.00 0.00 0.00 0.00 0.00 0.00 0.01 0.00 0.01 0.00 0.00 0.01 0.01 0.01 0.00 0.00 0.00 0.00
0.00 0.00 0.00 0.00 0.00 0.00 0.00 0.00 0.00 0.00 0.00 0.00 0.00 0.00 0.00 0.00 0.00 0.00 0.00 0.00 0.00 0.00 0.00 0.01 0.01 0.01 0.01 0.01 0.01 0.01 0.00 0.00 0.00 0.00 0.00 0.00 0.00 0.00 0.00 0.00 0.00 0.00 0.00 0.00 0.00 0.00 0.00 0.00 0.00
0.00 0.00 0.00 0.00 0.00 0.00 0.00 0.00 0.00 0.00 0.00 0.00 0.00 0.00 0.00 0.00 0.00 0.00 0.00 0.00 0.00 0.00 0.00 0.00 0.01 0.01 0.01 0.01 0.01 0.01 0.01 0.00 0.00 0.00 0.00 0.00 0.00 0.00 0.00 0.00 0.00 0.00 0.00 0.00 0.00 0.00 0.00 0.00 0.00
0.00 0.00 0.00 0.00 0.00 0.00 0.00 0.00 0.00 0.00 0.00 0.00 0.00 0.00 0.00 0.00 0.00 0.00 0.00 0.00 0.00 0.00 0.00 0.00 0.00 0.00 0.00 0.00 0.01 0.00 0.00 0.00 0.00 0.00 0.00 0.00 0.00 0.00 0.00 0.00 0.00 0.00 0.00 0.00 0.00 0.00 0.00 0.00 0.00
0.00 0.00 0.00 0.00 0.00 0.00 0.00 0.00 0.00 0.00 0.00 0.00 0.00 0.00 0.00 0.00 0.00 0.01 0.01 0.01 0.01 0.01 0.00 0.00 0.00 0.00 0.00 0.00 0.00 0.00 0.00 0.00 0.00 0.00 0.00 0.00 0.00 0.00 0.00 0.00 0.00 0.00 0.00 0.00 0.00 0.00 0.00 0.00 0.00
0.00 0.00 0.00 0.00 0.00 0.00 0.00 0.00 0.00 0.00 0.00 0.00 0.00 0.00 0.00 0.00 0.00 0.00 0.00 0.00 0.01 0.01 0.00 0.00 0.00 0.00 0.00 0.00 0.00 0.00 0.00 0.00 0.00 0.00 0.00 0.00 0.00 0.00 0.00 0.00 0.00 0.00 0.00 0.00 0.00 0.00 0.00 0.00 0.00
0.00 0.00 0.00 0.00 0.00 0.00 0.00 0.00 0.00 0.00 0.00 0.00 0.00 0.00 0.00 0.00 0.00 0.00 0.00 0.00 0.00 0.00 0.01 0.00 0.00 0.00 0.00 0.00 0.00 0.00 0.00 0.00 0.00 0.00 0.00 0.00 0.00 0.00 0.00 0.00 0.00 0.00 0.00 0.00 0.00 0.00 0.00 0.00 0.00
0.00 0.00 0.00 0.00 0.00 0.00 0.00 0.00 0.00 0.00 0.00 0.00 0.00 0.00 0.00 0.00 0.00 0.00 0.00 0.00 0.00 0.00 0.00 0.00 0.00 0.00 0.00 0.00 0.00 0.00 0.00 0.00 0.00 0.00 0.00 0.00 0.00 0.00 0.00 0.00 0.00 0.00 0.00 0.00 0.00 0.00 0.00 0.00 0.00
0.00 0.00 0.00 0.00 0.00 0.00 0.00 0.00 0.00 0.00 0.00 0.00 0.00 0.00 0.00 0.00 0.00 0.00 0.00 0.00 0.00 0.00 0.00 0.00 0.00 0.00 0.00 0.00 0.00 0.00 0.00 0.00 0.00 0.00 0.00 0.00 0.00 0.00 0.00 0.00 0.00 0.00 0.00 0.00 0.00 0.00 0.00 0.00 0.00
0.00 0.00 0.00 0.00 0.00 0.00 0.00 0.00 0.00 0.00 0.00 0.00 0.00 0.00 0.00 0.00 0.00 0.00 0.00 0.00 0.00 0.00 0.00 0.00 0.00 0.00 0.00 0.00 0.00 0.00 0.00 0.00 0.00 0.00 0.00 0.00 0.00 0.00 0.00 0.00 0.00 0.00 0.00 0.00 0.00 0.00 0.00 0.00 0.00
0.00 0.00 0.00 0.00 0.00 0.00 0.00 0.00 0.00 0.00 0.00 0.00 0.00 0.00 0.00 0.00 0.00 0.00 0.00 0.00 0.00 0.00 0.00 0.00 0.00 0.00 0.00 0.00 0.00 0.00 0.00 0.00 0.00 0.00 0.00 0.00 0.00 0.00 0.00 0.00 0.00 0.00 0.00 0.00 0.00 0.00 0.00 0.00 0.00
0.01 0.01 0.01 0.00 0.00 0.00 0.00 0.00 0.00 0.00 0.00 0.00 0.00 0.00 0.00 0.00 0.00 0.00 0.00 0.00 0.00 0.00 0.00 0.00 0.00 0.00 0.00 0.01 0.01 0.01 0.00 0.00 0.00 0.00 0.00 0.00 0.00 0.00 0.00 0.00 0.00 0.00 0.00 0.00 0.00 0.00 0.00 0.00 0.00
0.03 0.01 0.00 0.00 0.00 0.00 0.00 0.00 0.00 0.00 0.00 0.00 0.00 0.00 0.00 0.00 0.00 0.00 0.00 0.00 0.00 0.00 0.00 0.00 0.00 0.00 0.01 0.01 0.01 0.01 0.01 0.00 0.00 0.00 0.00 0.00 0.00 0.00 0.00 0.00 0.00 0.00 0.00 0.00 0.00 0.00 0.00 0.00 0.00
0.01 0.01 0.00 0.00 0.00 0.00 0.00 0.00 0.00 0.00 0.00 0.00 0.00 0.00 0.00 0.00 0.00 0.00 0.00 0.00 0.00 0.00 0.00 0.00 0.00 0.00 0.01 0.01 0.01 0.01 0.00 0.00 0.00 0.00 0.01 0.01 0.01 0.01 0.00 0.00 0.00 0.00 0.00 0.00 0.00 0.00 0.00 0.00 0.00
0.00 0.00 0.00 0.00 0.00 0.00 0.00 0.00 0.00 0.00 0.00 0.00 0.00 0.00 0.00 0.00 0.00 0.00 0.00 0.00 0.00 0.00 0.00 0.00 0.00 0.00 0.00 0.00 0.00 0.00 0.00 0.01 0.00 0.01 0.02 0.02 0.02 0.02 0.01 0.00 0.00 0.00 0.00 0.00 0.00 0.00 0.00 0.00 0.00
0.01 0.01 0.01 0.01 0.00 0.00 0.00 0.00 0.00 0.00 0.00 0.00 0.00 0.00 0.00 0.00 0.00 0.00 0.00 0.00 0.00 0.00 0.00 0.00 0.00 0.00 0.00 0.00 0.00 0.00 0.01 0.01 0.01 0.01 0.01 0.01 0.01 0.02 0.01 0.01 0.01 0.01 0.01 0.00 0.00 0.00 0.00 0.00 0.00
0.02 0.01 0.00 0.01 0.01 0.01 0.00 0.00 0.00 0.00 0.00 0.00 0.00 0.00 0.00 0.00 0.00 0.00 0.00 0.00 0.00 0.00 0.00 0.00 0.00 0.00 0.00 0.00 0.00 0.00 0.00 0.00 0.00 0.00 0.00 0.01 0.01 0.02 0.02 0.02 0.02 0.02 0.03 0.02 0.02 0.02 0.01 0.01 0.01
0.04 0.02 0.00 0.00 0.01 0.01 0.00 0.00 0.00 0.00 0.00 0.00 0.00 0.00 0.00 0.00 0.00 0.00 0.00 0.00 0.00 0.00 0.00 0.00 0.00 0.00 0.00 0.00 0.00 0.00 0.00 0.00 0.00 0.00 0.00 0.01 0.01 0.02 0.03 0.03 0.04 0.04 0.04 0.03 0.04 0.05 0.04 0.04 0.03
0.04 0.03 0.01 0.01 0.01 0.01 0.00 0.00 0.00 0.00 0.00 0.00 0.00 0.00 0.00 0.00 0.00 0.00 0.00 0.00 0.00 0.00 0.00 0.00 0.00 0.00 0.00 0.00 0.00 0.00 0.00 0.00 0.00 0.00 0.00 0.00 0.01 0.01 0.02 0.03 0.04 0.05 0.05 0.06 0.07 0.07 0.08 0.07 0.06
0.06 0.04 0.03 0.02 0.02 0.01 0.00 0.00 0.00 0.00 0.00 0.00 0.00 0.00 0.00 0.00 0.00 0.00 0.00 0.00 0.00 0.00 0.00 0.00 0.00 0.00 0.00 0.00 0.00 0.00 0.00 0.00 0.00 0.00 0.00 0.00 0.00 0.01 0.02 0.03 0.04 0.06 0.07 0.09 0.10 0.11 0.12 0.11 0.10
0.07 0.06 0.06 0.05 0.03 0.01 0.00 0.00 0.00 0.00 0.00 0.00 0.00 0.00 0.00 0.00 0.00 0.00 0.00 0.00 0.00 0.00 0.00 0.00 0.00 0.00 0.00 0.00 0.00 0.00 0.00 0.00 0.00 0.00 0.00 0.00 0.01 0.01 0.02 0.04 0.05 0.06 0.08 0.11 0.12 0.12 0.12 0.12 0.10
0.05 0.04 0.02 0.02 0.01 0.00 0.00 0.00 0.00 0.00 0.00 0.00 0.00 0.00 0.00 0.00 0.00 0.00 0.00 0.00 0.00 0.00 0.00 0.00 0.00 0.00 0.00 0.00 0.00 0.00 0.00 0.00 0.00 0.00 0.00 0.01 0.01 0.02 0.03 0.05 0.06 0.07 0.08 0.09 0.11 0.12 0.12 0.12 0.12
0.03 0.03 0.01 0.00 0.00 0.00 0.00 0.00 0.00 0.00 0.00 0.00 0.00 0.00 0.00 0.00 0.00 0.00 0.00 0.00 0.00 0.00 0.00 0.00 0.00 0.00 0.00 0.00 0.00 0.00 0.00 0.00 0.00 0.00 0.00 0.01 0.01 0.02 0.03 0.04 0.05 0.06 0.07 0.08 0.09 0.10 0.11 0.11 0.11
0.02 0.02 0.01 0.00 0.00 0.00 0.00 0.00 0.00 0.00 0.00 0.00 0.00 0.00 0.00 0.00 0.00 0.00 0.00 0.00 0.00 0.00 0.00 0.00 0.00 0.00 0.00 0.00 0.00 0.00 0.00 0.00 0.00 0.00 0.00 0.00 0.00 0.01 0.02 0.03 0.03 0.04 0.05 0.06 0.07 0.08 0.09 0.10 0.11
0.01 0.01 0.01 0.00 0.00 0.00 0.00 0.00 0.00 0.00 0.00 0.00 0.00 0.00 0.00 0.00 0.00 0.00 0.00 0.00 0.00 0.00 0.00 0.00 0.00 0.00 0.00 0.00 0.00 0.00 0.00 0.00 0.00 0.00 0.00 0.00 0.00 0.01 0.01 0.02 0.02 0.03 0.03 0.04 0.05 0.06 0.07 0.09 0.11
0.00 0.00 0.00 0.00 0.00 0.00 0.00 0.00 0.00 0.00 0.00 0.00 0.00 0.00 0.00 0.00 0.00 0.00 0.00 0.00 0.00 0.00 0.00 0.00 0.00 0.00 0.00 0.00 0.00 0.00 0.00 0.00 0.00 0.00 0.00 0.00 0.00 0.00 0.01 0.01 0.01 0.02 0.02 0.03 0.03 0.05 0.06 0.08 0.10
MSLP
1014.73 1014.89 1015.14 1015.43 1015.68 1015.85 1015.89 1015.80 1015.58 1015.27 1014.91 1014.54 1014.18 1013.84 1013.53 1013.23 1012.94 1012.66 1012.42 1012.25 1012.18 1012.24 1012.44 1012.79 1013.24 1013.75 1014.27 1014.76 1015.18 1015.52 1015.79 1016.01 1016.21 1016.41 1016.61 1016.83 1017.03 1017.23 1017.39 1017.53 1017.64 1017.76 1017.89 1018.05 1018.24 1018.45 1018.66 1018.85 1018.98
1014.82 1014.98 1015.22 1015.48 1015.70 1015.82 1015.80 1015.65 1015.36 1014.97 1014.54 1014.11 1013.71 1013.36 1013.05 1012.78 1012.55 1012.34 1012.17 1012.07 1012.06 1012.17 1012.41 1012.78 1013.26 1013.80 1014.35 1014.88 1015.35 1015.74 1016.06 1016.32 1016.53 1016.73 1016.91 1017.08 1017.23 1017.36 1017.47 1017.56 1017.65 1017.76 1017.91 1018.11 1018.35 1018.61 1018.86 1019.08 1019.22
1014.91 1015.03 1015.22 1015.42 1015.58 1015.64 1015.57 1015.36 1015.02 1014.60 1014.14 1013.68 1013.27 1012.92 1012.63 1012.40 1012.22 1012.08 1011.98 1011.95 1012.00 1012.15 1012.43 1012.82 1013.30 1013.86 1014.43 1014.99 1015.49 1015.93 1016.29 1016.59 1016.84 1017.04 1017.21 1017.35 1017.46 1017.54 1017.59 1017.65 1017.72 1017.82 1017.99 1018.21 1018.49 1018.78 1019.07 1019.30 1019.46
1014.95 1015.02 1015.14 1015.25 1015.33 1015.32 1015.21 1014.97 1014.62 1014.19 1013.73 1013.29 1012.90 1012.58 1012.32 1012.14 1012.01 1011.94 1011.91 1011.93 1012.03 1012.22 1012.52 1012.91 1013.40 1013.94 1014.51 1015.07 1015.60 1016.06 1016.46 1016.80 1017.08 1017.31 1017.49 1017.62 1017.71 1017.77 1017.80 1017.83 1017.89 1018.00 1018.17 1018.41 1018.70 1019.02 1019.31 1019.55 1019.70
1014.93 1014.92 1014.95 1014.97 1014.97 1014.90 1014.75 1014.50 1014.17 1013.78 1013.37 1012.98 1012.64 1012.37 1012.17 1012.04 1011.97 1011.95 1011.97 1012.05 1012.19 1012.40 1012.70 1013.09 1013.55 1014.06 1014.61 1015.15 1015.66 1016.14 1016.56 1016.93 1017.24 1017.50 1017.71 1017.87 1017.97 1018.04 1018.08 1018.12 1018.18 1018.30 1018.48 1018.72 1019.01 1019.32 1019.60 1019.82 1019.95
1014.82 1014.74 1014.68 1014.61 1014.53 1014.41 1014.23 1014.00 1013.72 1013.40 1013.07 1012.77 1012.51 1012.31 1012.18 1012.11 1012.09 1012.12 1012.18 1012.30 1012.46 1012.68 1012.97 1013.33 1013.75 1014.22 1014.71 1015.21 1015.69 1016.15 1016.58 1016.96 1017.31 1017.61 1017.86 1018.07 1018.22 1018.33 1018.41 1018.48 1018.57 1018.69 1018.87 1019.10 1019.37 1019.65 1019.90 1020.08 1020.18
1014.65 1014.51 1014.36 1014.21 1014.06 1013.90 1013.73 1013.53 1013.31 1013.08 1012.85 1012.65 1012.48 1012.37 1012.31 1012.30 1012.33 1012.40 1012.50 1012.64 1012.82 1013.03 1013.30 1013.63 1013.99 1014.40 1014.83 1015.26 1015.70 1016.12 1016.53 1016.92 1017.29 1017.63 1017.94 1018.20 1018.42 1018.59 1018.73 1018.84 1018.97 1019.11 1019.29 1019.49 1019.73 1019.95 1020.15 1020.29 1020.35
1014.46 1014.26 1014.05 1013.84 1013.65 1013.46 1013.29 1013.13 1012.97 1012.83 1012.70 1012.59 1012.52 1012.49 1012.50 1012.55 1012.63 1012.74 1012.87 1013.02 1013.20 1013.41 1013.65 1013.93 1014.25 1014.59 1014.95 1015.33 1015.70 1016.08 1016.46 1016.84 1017.22 1017.58 1017.93 1018.25 1018.53 1018.77 1018.97 1019.14 1019.30 1019.46 1019.63 1019.81 1020.00 1020.17 1020.30 1020.39 1020.41
1014.30 1014.07 1013.82 1013.58 1013.35 1013.15 1012.98 1012.85 1012.74 1012.66 1012.61 1012.59 1012.59 1012.63 1012.71 1012.80 1012.92 1013.06 1013.21 1013.38 1013.55 1013.75 1013.97 1014.22 1014.49 1014.78 1015.08 1015.39 1015.71 1016.04 1016.39 1016.74 1017.11 1017.49 1017.86 1018.21 1018.54 1018.83 1019.09 1019.30 1019.50 1019.67 1019.84 1019.99 1020.14 1020.25 1020.34 1020.37 1020.37
1014.19 1013.97 1013.71 1013.45 1013.21 1013.00 1012.83 1012.71 1012.63 1012.58 1012.58 1012.60 1012.66 1012.74 1012.86 1012.99 1013.14 1013.30 1013.47 1013.64 1013.82 1014.01 1014.21 1014.43 1014.67 1014.92 1015.18 1015.45 1015.73 1016.02 1016.33 1016.66 1017.01 1017.37 1017.74 1018.10 1018.45 1018.77 1019.05 1019.30 1019.52 1019.70 1019.87 1020.00 1020.12 1020.20 1020.25 1020.26 1020.24
1014.15 1013.96 1013.72 1013.47 1013.23 1013.02 1012.85 1012.72 1012.63 1012.59 1012.58 1012.61 1012.68 1012.79 1012.92 1013.08 1013.25 1013.42 1013.60 1013.78 1013.96 1014.14 1014.34 1014.55 1014.77 1015.00 1015.24 1015.49 1015.75 1016.02 1016.30 1016.59 1016.91 1017.24 1017.59 1017.93 1018.27 1018.59 1018.88 1019.14 1019.37 1019.56 1019.73 1019.86 1019.97 1020.05 1020.09 1020.10 1020.09
1014.14 1014.00 1013.82 1013.60 1013.39 1013.19 1013.01 1012.85 1012.73 1012.65 1012.61 1012.61 1012.66 1012.75 1012.88 1013.04 1013.22 1013.40 1013.59 1013.77 1013.95 1014.13 1014.33 1014.53 1014.75 1014.98 1015.23 1015.48 1015.74 1016.00 1016.26 1016.53 1016.82 1017.11 1017.41 1017.72 1018.02 1018.32 1018.60 1018.85 1019.08 1019.29 1019.47 1019.63 1019.75 1019.85 1019.92 1019.96 1019.98
1014.09 1014.04 1013.92 1013.77 1013.60 1013.42 1013.23 1013.05 1012.89 1012.75 1012.64 1012.59 1012.59 1012.64 1012.75 1012.89 1013.06 1013.24 1013.43 1013.61 1013.79 1013.97 1014.17 1014.38 1014.61 1014.85 1015.12 1015.39 1015.66 1015.93 1016.19 1016.45 1016.70 1016.96 1017.22 1017.48 1017.74 1017.99 1018.25 1018.49 1018.72 1018.95 1019.16 1019.35 1019.53 1019.68 1019.80 1019.90 1019.98
1013.95 1013.98 1013.96 1013.89 1013.78 1013.64 1013.46 1013.26 1013.04 1012.84 1012.66 1012.53 1012.47 1012.47 1012.53 1012.65 1012.80 1012.97 1013.15 1013.32 1013.50 1013.68 1013.87 1014.08 1014.33 1014.59 1014.88 1015.18 1015.48 1015.77 1016.04 1016.30 1016.54 1016.77 1016.99 1017.21 1017.42 1017.65 1017.87 1018.11 1018.35 1018.59 1018.85 1019.09 1019.34 1019.56 1019.77 1019.94 1020.09
1013.65 1013.78 1013.85 1013.89 1013.86 1013.77 1013.62 1013.41 1013.16 1012.90 1012.66 1012.46 1012.33 1012.27 1012.29 1012.37 1012.49 1012.64 1012.80 1012.96 1013.12 1013.29 1013.48 1013.69 1013.94 1014.22 1014.53 1014.85 1015.18 1015.50 1015.79 1016.06 1016.29 1016.51 1016.70 1016.90 1017.08 1017.28 1017.49 1017.73 1017.98 1018.26 1018.56 1018.87 1019.18 1019.49 1019.78 1020.04 1020.26
1013.20 1013.41 1013.59 1013.72 1013.79 1013.77 1013.66 1013.47 1013.22 1012.92 1012.64 1012.39 1012.20 1012.09 1012.06 1012.10 1012.19 1012.31 1012.45 1012.58 1012.72 1012.86 1013.03 1013.24 1013.48 1013.77 1014.09 1014.43 1014.78 1015.11 1015.42 1015.70 1015.94 1016.16 1016.35 1016.53 1016.71 1016.90 1017.11 1017.35 1017.62 1017.93 1018.27 1018.64 1019.02 1019.41 1019.77 1020.10 1020.39
1012.64 1012.92 1013.19 1013.42 1013.58 1013.64 1013.59 1013.44 1013.20 1012.91 1012.61 1012.33 1012.11 1011.96 1011.90 1011.90 1011.95 1012.03 1012.13 1012.23 1012.34 1012.46 1012.60 1012.78 1013.01 1013.29 1013.60 1013.94 1014.29 1014.63 1014.95 1015.23 1015.48 1015.70 1015.90 1016.08 1016.27 1016.47 1016.69 1016.95 1017.24 1017.58 1017.95 1018.36 1018.79 1019.22 1019.64 1020.03 1020.37
1012.06 1012.39 1012.74 1013.04 1013.28 1013.41 1013.43 1013.33 1013.14 1012.87 1012.58 1012.31 1012.08 1011.92 1011.83 1011.80 1011.81 1011.86 1011.91 1011.98 1012.05 1012.13 1012.24 1012.39 1012.59 1012.84 1013.13 1013.44 1013.77 1014.09 1014.40 1014.67 1014.92 1015.14 1015.34 1015.54 1015.75 1015.97 1016.21 1016.49 1016.80 1017.15 1017.54 1017.97 1018.41 1018.87 1019.32 1019.73 1020.11
1011.57 1011.93 1012.32 1012.67 1012.96 1013.15 1013.22 1013.18 1013.04 1012.83 1012.58 1012.34 1012.13 1011.98 1011.87 1011.82 1011.81 1011.81 1011.83 1011.85 1011.88 1011.92 1012.00 1012.11 1012.27 1012.48 1012.72 1012.99 1013.27 1013.55 1013.81 1014.06 1014.28 1014.49 1014.70 1014.91 1015.14 1015.38 1015.64 1015.94 1016.26 1016.62 1017.01 1017.43 1017.86 1018.31 1018.75 1019.18 1019.56
1011.26 1011.64 1012.02 1012.38 1012.68 1012.90 1013.01 1013.02 1012.94 1012.79 1012.61 1012.43 1012.26 1012.13 1012.03 1011.97 1011.93 1011.90 1011.88 1011.86 1011.85 1011.86 1011.89 1011.97 1012.09 1012.24 1012.42 1012.63 1012.84 1013.04 1013.24 1013.43 1013.61 1013.79 1013.98 1014.19 1014.43 1014.69 1014.97 1015.28 1015.62 1015.97 1016.35 1016.74 1017.15 1017.57 1017.98 1018.39 1018.77
1011.20 1011.54 1011.89 1012.22 1012.49 1012.70 1012.82 1012.87 1012.84 1012.76 1012.66 1012.54 1012.44 1012.35 1012.28 1012.22 1012.17 1012.12 1012.06 1012.01 1011.96 1011.94 1011.94 1011.97 1012.04 1012.14 1012.25 1012.38 1012.49 1012.60 1012.71 1012.81 1012.92 1013.05 1013.21 1013.41 1013.65 1013.92 1014.22 1014.54 1014.88 1015.23 1015.59 1015.96 1016.33 1016.71 1017.10 1017.48 1017.85
1011.36 1011.65 1011.93 1012.18 1012.39 1012.55 1012.66 1012.72 1012.73 1012.72 1012.69 1012.66 1012.63 1012.60 1012.57 1012.53 1012.48 1012.41 1012.34 1012.26 1012.19 1012.14 1012.11 1012.10 1012.12 1012.16 1012.19 1012.22 1012.23 1012.24 1012.23 1012.23 1012.25 1012.31 1012.42 1012.59 1012.81 1013.09 1013.40 1013.74 1014.09 1014.45 1014.81 1015.16 1015.51 1015.87 1016.22 1016.59 1016.96
1011.67 1011.89 1012.07 1012.22 1012.35 1012.44 1012.50 1012.56 1012.60 1012.64 1012.69 1012.74 1012.78 1012.82 1012.84 1012.83 1012.79 1012.73 1012.65 1012.56 1012.48 1012.40 1012.35 1012.31 1012.28 1012.25 1012.21 1012.14 1012.04 1011.92 1011.80 1011.69 1011.61 1011.58 1011.63 1011.77 1011.97 1012.25 1012.57 1012.93 1013.31 1013.69 1014.07 1014.43 1014.79 1015.14 1015.49 1015.85 1016.23
1012.01 1012.15 1012.24 1012.29 1012.31 1012.32 1012.34 1012.37 1012.42 1012.51 1012.62 1012.74 1012.86 1012.97 1013.04 1013.08 1013.07 1013.02 1012.95 1012.86 1012.78 1012.70 1012.62 1012.55 1012.48 1012.38 1012.26 1012.09 1011.89 1011.65 1011.41 1011.18 1011.01 1010.90 1010.89 1010.98 1011.16 1011.44 1011.78 1012.17 1012.59 1013.02 1013.43 1013.84 1014.23 1014.61 1014.99 1015.38 1015.79
1012.28 1012.35 1012.36 1012.31 1012.24 1012.18 1012.14 1012.15 1012.21 1012.33 1012.48 1012.66 1012.85 1013.02 1013.14 1013.23 1013.26 1013.25 1013.20 1013.13 1013.05 1012.97 1012.88 1012.79 1012.67 1012.51 1012.31 1012.05 1011.75 1011.41 1011.06 1010.73 1010.47 1010.29 1010.22 1010.27 1010.44 1010.71 1011.08 1011.51 1011.98 1012.46 1012.94 1013.42 1013.88 1014.32 1014.76 1015.20 1015.65
1012.40 1012.44 1012.38 1012.27 1012.14 1012.02 1011.94 1011.93 1011.98 1012.11 1012.29 1012.51 1012.74 1012.96 1013.14 1013.27 1013.35 1013.38 1013.37 1013.33 1013.27 1013.20 1013.11 1012.99 1012.84 1012.63 1012.36 1012.02 1011.63 1011.20 1010.77 1010.36 1010.02 1009.79 1009.67 1009.69 1009.85 1010.13 1010.52 1010.98 1011.50 1012.06 1012.62 1013.17 1013.72 1014.25 1014.77 1015.28 1015.79
1012.37 1012.39 1012.32 1012.18 1012.02 1011.87 1011.77 1011.73 1011.77 1011.89 1012.08 1012.32 1012.57 1012.82 1013.03 1013.21 1013.34 1013.42 1013.46 1013.46 1013.44 1013.39 1013.30 1013.17 1012.99 1012.73 1012.40 1012.00 1011.55 1011.06 1010.56 1010.11 1009.73 1009.46 1009.31 1009.32 1009.47 1009.75 1010.15 1010.65 1011.21 1011.82 1012.46 1013.10 1013.73 1014.36 1014.96 1015.55 1016.13
1012.21 1012.25 1012.20 1012.08 1011.93 1011.77 1011.66 1011.60 1011.62 1011.72 1011.89 1012.11 1012.36 1012.61 1012.85 1013.07 1013.25 1013.38 1013.48 1013.54 1013.57 1013.55 1013.48 1013.35 1013.14 1012.85 1012.49 1012.05 1011.55 1011.02 1010.50 1010.03 1009.63 1009.35 1009.20 1009.20 1009.35 1009.63 1010.04 1010.55 1011.14 1011.79 1012.48 1013.18 1013.89 1014.59 1015.27 1015.93 1016.57
1012.00 1012.09 1012.09 1012.02 1011.90 1011.76 1011.64 1011.57 1011.55 1011.61 1011.73 1011.92 1012.14 1012.38 1012.63 1012.88 1013.10 1013.30 1013.47 1013.59 1013.67 1013.70 1013.66 1013.54 1013.33 1013.03 1012.65 1012.19 1011.69 1011.16 1010.65 1010.18 1009.81 1009.54 1009.41 1009.42 1009.56 1009.84 1010.24 1010.74 1011.33 1011.98 1012.68 1013.41 1014.16 1014.91 1015.64 1016.35 1017.03
1011.82 1011.98 1012.04 1012.02 1011.94 1011.83 1011.71 1011.61 1011.56 1011.56 1011.62 1011.74 1011.92 1012.15 1012.40 1012.67 1012.94 1013.20 1013.43 1013.63 1013.78 1013.86 1013.86 1013.77 1013.58 1013.29 1012.92 1012.48 1011.99 1011.50 1011.02 1010.61 1010.28 1010.06 1009.96 1009.98 1010.13 1010.40 1010.77 1011.25 1011.80 1012.42 1013.10 1013.82 1014.56 1015.31 1016.05 1016.78 1017.47
Thickness
5675 5682 5689 5691 5685 5684 5692 5707 5713 5716 5723 5733 5739 5742 5746 5752 5753 5752 5763 5774 5774 5771 5767 5760 5757 5754 5752 5750 5748 5745 5742 5740 5738 5736 5733 5732 5730 5728 5727 5726 5725 5723 5722 5720 5718 5716 5714 5713 5711
5668 5675 5678 5678 5672 5673 5690 5707 5708 5715 5725 5730 5735 5739 5743 5752 5762 5760 5761 5767 5768 5767 5763 5758 5753 5751 5749 5746 5744 5741 5738 5736 5733 5731 5729 5728 5726 5724 5723 5722 5721 5719 5717 5715 5713 5711 5709 5708 5706
5660 5666 5667 5666 5667 5678 5694 5704 5709 5715 5721 5724 5731 5739 5743 5749 5757 5758 5761 5763 5763 5761 5759 5754 5750 5747 5745 5743 5740 5737 5734 5731 5729 5727 5725 5723 5722 5720 5719 5718 5717 5715 5712 5710 5708 5706 5704 5702 5701
5653 5654 5656 5658 5666 5686 5699 5703 5704 5706 5714 5721 5726 5733 5744 5748 5753 5757 5758 5759 5758 5757 5755 5749 5745 5743 5741 5738 5736 5733 5730 5727 5725 5722 5720 5719 5717 5716 5715 5713 5712 5709 5707 5705 5703 5701 5699 5697 5696
5644 5646 5644 5651 5668 5689 5698 5700 5698 5701 5707 5716 5721 5727 5737 5744 5749 5752 5753 5754 5753 5752 5750 5744 5740 5738 5736 5734 5731 5729 5726 5723 5720 5718 5716 5714 5713 5711 5709 5708 5706 5704 5702 5700 5698 5696 5694 5692 5691
5632 5640 5642 5650 5668 5685 5689 5692 5692 5696 5705 5712 5716 5722 5733 5737 5740 5745 5748 5748 5748 5746 5744 5739 5735 5733 5731 5729 5726 5724 5721 5718 5716 5713 5711 5710 5708 5706 5704 5702 5700 5699 5697 5695 5693 5691 5689 5687 5686
5627 5633 5644 5657 5667 5675 5682 5686 5688 5693 5699 5707 5715 5716 5729 5731 5734 5739 5741 5742 5743 5741 5739 5735 5731 5728 5725 5724 5721 5719 5717 5714 5711 5709 5707 5705 5703 5701 5698 5697 5695 5693 5692 5690 5688 5686 5684 5682 5681
5626 5630 5638 5651 5660 5670 5680 5680 5687 5690 5697 5708 5711 5712 5721 5725 5728 5731 5732 5733 5735 5735 5733 5731 5728 5726 5723 5720 5717 5714 5712 5709 5707 5704 5702 5700 5697 5695 5693 5692 5690 5688 5686 5685 5683 5681 5679 5677 5676
5614 5617 5634 5648 5653 5664 5671 5672 5681 5689 5694 5698 5708 5714 5716 5722 5721 5721 5721 5723 5725 5727 5728 5726 5724 5722 5720 5717 5713 5710 5707 5704 5702 5699 5697 5695 5694 5692 5689 5688 5685 5683 5681 5680 5678 5676 5674 5672 5670
5603 5613 5636 5647 5651 5657 5661 5667 5674 5677 5682 5689 5699 5707 5711 5714 5714 5714 5715 5716 5717 5718 5720 5721 5720 5718 5715 5712 5709 5707 5704 5702 5700 5698 5695 5694 5692 5690 5687 5683 5681 5679 5677 5675 5673 5671 5669 5668 5668
5601 5615 5628 5630 5639 5647 5652 5659 5668 5672 5674 5685 5693 5699 5702 5705 5708 5710 5711 5713 5713 5714 5714 5715 5715 5713 5711 5708 5707 5705 5703 5700 5698 5697 5694 5692 5689 5686 5683 5681 5677 5675 5673 5672 5668 5667 5667 5666 5665
5596 5607 5614 5622 5628 5635 5643 5651 5658 5665 5674 5682 5687 5692 5697 5699 5702 5705 5706 5708 5709 5709 5709 5709 5709 5708 5707 5705 5703 5702 5700 5698 5696 5693 5691 5689 5687 5684 5682 5680 5677 5674 5672 5669 5667 5665 5664 5662 5661
5588 5596 5603 5611 5618 5626 5632 5640 5648 5657 5667 5674 5678 5684 5690 5696 5699 5701 5704 5704 5705 5704 5705 5704 5703 5703 5702 5701 5700 5698 5697 5695 5693 5690 5688 5686 5684 5682 5680 5678 5674 5672 5670 5667 5664 5663 5661 5658 5657
5584 5589 5594 5602 5609 5616 5621 5631 5638 5652 5660 5665 5670 5677 5684 5690 5694 5697 5698 5700 5701 5701 5701 5701 5700 5699 5698 5698 5697 5695 5694 5692 5690 5688 5686 5683 5682 5680 5678 5675 5672 5670 5667 5664 5661 5660 5657 5655 5652
5576 5577 5583 5593 5601 5609 5613 5620 5636 5649 5652 5657 5665 5672 5676 5683 5688 5692 5695 5697 5699 5700 5700 5699 5698 5697 5695 5695 5694 5692 5691 5689 5688 5686 5683 5681 5679 5677 5674 5673 5670 5667 5663 5661 5658 5655 5653 5650 5647
5564 5566 5573 5589 5596 5602 5602 5618 5636 5642 5645 5651 5659 5667 5671 5677 5682 5688 5692 5694 5696 5697 5697 5698 5696 5695 5694 5692 5690 5689 5688 5686 5685 5684 5682 5679 5677 5674 5671 5670 5668 5664 5660 5657 5654 5652 5649 5646 5643
5555 5565 5576 5585 5592 5599 5601 5614 5626 5634 5639 5646 5654 5661 5666 5672 5677 5683 5687 5690 5693 5695 5695 5695 5694 5693 5692 5689 5687 5686 5685 5684 5683 5681 5680 5678 5675 5672 5669 5667 5665 5661 5658 5654 5651 5648 5646 5642 5638
5563 5573 5577 5582 5588 5593 5598 5610 5619 5627 5631 5640 5649 5655 5660 5666 5673 5679 5682 5686 5689 5691 5693 5693 5693 5691 5689 5686 5683 5682 5681 5681 5679 5678 5677 5675 5673 5669 5666 5665 5662 5659 5655 5651 5648 5643 5640 5638 5633
5567 5568 5570 5577 5581 5586 5593 5602 5613 5622 5627 5635 5642 5649 5655 5662 5668 5673 5676 5680 5682 5684 5686 5688 5688 5688 5685 5683 5680 5678 5678 5678 5676 5675 5674 5672 5670 5667 5664 5662 5659 5656 5653 5650 5646 5640 5635 5631 5627
5557 5560 5564 5566 5571 5580 5588 5596 5608 5616 5623 5630 5637 5644 5650 5655 5660 5664 5669 5673 5676 5678 5680 5682 5683 5683 5682 5681 5679 5678 5676 5675 5674 5672 5670 5669 5667 5665 5662 5659 5657 5653 5650 5646 5643 5638 5632 5627 5621
5550 5557 5561 5563 5565 5570 5579 5594 5603 5610 5615 5621 5628 5635 5642 5647 5653 5658 5662 5665 5668 5670 5673 5674 5676 5677 5677 5676 5674 5672 5670 5670 5669 5669 5669 5668 5665 5662 5659 5656 5653 5650 5646 5644 5640 5635 5629 5624 5617
5544 5551 5555 5558 5564 5571 5574 5592 5600 5603 5607 5613 5621 5627 5634 5639 5644 5648 5652 5656 5658 5661 5664 5665 5668 5669 5670 5669 5668 5667 5666 5666 5669 5669 5667 5665 5661 5658 5656 5652 5649 5646 5642 5640 5636 5631 5627 5621 5614
5540 5544 5547 5552 5558 5563 5570 5580 5600 5597 5601 5607 5614 5620 5625 5630 5635 5639 5642 5645 5648 5651 5653 5655 5658 5660 5661 5662 5662 5661 5662 5664 5665 5664 5663 5661 5658 5655 5652 5648 5644 5641 5638 5635 5631 5626 5621 5618 5613
5532 5534 5536 5541 5548 5555 5572 5577 5595 5597 5599 5602 5606 5611 5617 5621 5626 5629 5632 5635 5638 5641 5643 5645 5648 5650 5652 5653 5655 5655 5656 5656 5656 5657 5657 5655 5653 5650 5647 5643 5639 5635 5632 5628 5624 5619 5614 5611 5607
5528 5531 5533 5536 5543 5560 5561 5568 5589 5590 5592 5596 5599 5604 5608 5613 5618 5622 5624 5626 5628 5631 5633 5636 5639 5641 5643 5644 5646 5648 5648 5648 5649 5649 5649 5648 5646 5644 5641 5636 5632 5628 5624 5620 5615 5610 5605 5601 5596
5527 5535 5543 5549 5556 5562 5550 5565 5582 5581 5583 5586 5591 5595 5600 5605 5610 5612 5614 5616 5618 5620 5622 5625 5628 5630 5633 5635 5637 5639 5640 5640 5642 5642 5641 5641 5640 5637 5633 5628 5623 5619 5614 5609 5603 5598 5594 5589 5584
5523 5530 5537 5543 5542 5553 5564 5566 5571 5571 5575 5579 5584 5588 5593 5597 5601 5603 5605 5606 5608 5610 5612 5614 5617 5620 5622 5624 5627 5630 5631 5632 5633 5633 5632 5631 5629 5626 5622 5617 5611 5606 5601 5596 5590 5584 5580 5575 5570
5524 5528 5529 5535 5543 5558 5565 5569 5576 5568 5572 5575 5579 5583 5587 5590 5593 5594 5596 5596 5597 5599 5601 5604 5606 5609 5611 5614 5616 5618 5620 5621 5622 5621 5620 5618 5616 5612 5607 5602 5597 5591 5585 5580 5574 5569 5565 5560 5555
5517 5520 5529 5537 5541 5552 5565 5572 5574 5572 5572 5572 5574 5577 5580 5583 5585 5586 5586 5587 5587 5589 5592 5594 5597 5599 5601 5603 5605 5607 5609 5609 5610 5609 5607 5604 5600 5596 5591 5586 5580 5574 5568 5562 5557 5553 5549 5545 5540
5522 5527 5529 5534 5534 5537 5552 5563 5563 5568 5568 5567 5569 5571 5574 5576 5577 5577 5577 5578 5579 5581 5583 5585 5586 5588 5590 5592 5594 5595 5596 5597 5596 5595 5592 5588 5584 5579 5573 5567 5561 5554 5548 5544 5540 5536 5532 5529 5525